Probability
0 0 0 0 0 0 0 0 0 0 0 0 0 0 0 0 0 0 0 0 0 0 0 0 0 0 0 0 0 0 0 0 0 0 0 0 0 0 0 0 0 0 0
0 0 0 0 0 0 0 0 0 0 0 0 0 0 0 0 0 0 0 0 0 0 0 0 0 0 0 0 0 0 0 0 0 0 0 0 0 0 0 0 0 0 0
0 0 0 0 0 0 0 0 0 0 0 0 0 0 0 0 0 0 0 0 0 0 0 0 0 0 0 0 0 0 0 0 0 0 0 0 0 0 0 0 0 0 0
0 0 0 0 0 0 0 0 0 0 0 0 0 0 0 0 0 0 0 0 0 0 0 0 0 0 0 0 0 0 0 0 0 0 0 0 0 0 0 0 0 0 0
0 0 0 0 0 0 0 0 0 0 0 0 0 0 0 0 0 0 0 0 0 0 0 0 0 0 0 0 0 0 0 0 0 0 0 0 0 0 0 0 0 0 0
0 0 0 0 0 0 0 0 0 0 0 0 0 0 0 0 0 0 0 0 0 0 0 0 0 0 0 0 0 0 0 0 0 0 0 0 0 0 0 0 0 0 0
0 0 0 0 0 0 0 0 0 0 0 0 0 0 0 0 0 0 0 0 0 0 0 0 0 0 0 0 0 0 0 0 0 0 0 0 0 0 0 0 0 0 0
0 0 0 0 0 0 0 0 0 0 0 0 0 0 0 0 0 0 0 0 0 0 0 0 0 0 0 0 0 0 0 0 0 0 0 0 0 0 0 0 0 0 0
0 0 0 0 0 0 0 0 0 0 0 0 0 0 0 0 0 0 0 0 0 0 0 0 0 0 0 0 0 0 0 0 0 0 0 0 0 0 0 0 0 0 0
0 0 0 0 0 0 0 0 0 0 0 0 0 0 0 0 0 0 0 0 0 0 0 0 0 0 0 0 0 0 0 0 0 0 0 0 0 0 0 0 0 0 0
0 0 0 0 0 0 0 0 0 0 0 0 0 0 0 0 0 0 0 0 0 0 0 0 0 0 0 0 0 0 0 0 0 0 0 0 0 0 0 0 0 0 0
0 0 0 0 0 0 0 0 0 0 0 0 0 0 0 0 0 0 0 0 0 0 0 0 0 0 0 0 0 0 0 0 0 0 0 0 0 0 0 0 0 0 0
0 0 0 0 0 0 0 0 0 0 0 0 0 0 0 0 0 0 0 0 0 0 0 0 0 0 0 0 0 0 0 0 0 0 0 0 0 0 0 0 0 0 0
0 0 0 0 0 0 0 0 0 0 0 0 0 0 0 0 0 0 0 0 0 0 0 0 0 0 0 0 0 0 0 0 0 0 0 0 0 0 0 0 0 0 0
0 0 0 0 0 0 0 0 0 0 0 0 0 0 0 0 0 0 0 0 0 0 0 0 0 0 0 0 0 0 0 0 0 0 0 0 0 0 0 0 0 0 0
0 0 0 0 0 0 0 0 0 0 0 0 0 0 0 0 0 0 0 0 0 0 0 0 0 0 0 0 0 0 0 0 0 0 0 0 0 0 0 0 0 0 0
0 0 0 0 0 0 0 0 0 0 0 0 0 0 0 0 0 0 0 0 0 0 0 0 0 0 0 0 0 0 0 0 0 0 0 0 0 0 0 0 0 0 0
0 0 0 0 0 0 0 0 0 0 0 0 0 0 0 0 0 0 0 0 0 0 0 0 0 0 0 0 0 0 0 0 0 0 0 0 0 0 0 0 0 0 0
0 0 0 0 0 0 0 0 0 0 0 0 0 0 0 0 0 0 0 0 0 0 0 0 0 0 0 0 0 0 0 0 0 0 0 0 0 0 0 0 0 0 0
0 0 0 0 0 0 0 0 0 0 0 0 0 0 0 0 0 0 0 0 0 0 0 0 0 0 0 0 0 0 0 0 0 0 0 0 0 0 0 0 0 0 0
0 0 0 0 0 0 0 0 0 0 0 0 0 0 0 0 0 0 0 0 0 0 0 0 0 0 0 0 0 0 0 0 0 0 0 0 0 0 0 0 0 0 0
0 0 0 0 0 0 0 0 0 0 0 0 0 0 0 0 0 0 0 0 0 0 0 0 0 0 0 0 0 0 0 0 0 0 0 0 0 0 0 0 0 0 0
0 0 0 0 0 0 0 0 0 0 0 0 0 0 0 0 0 0 0 0 0 0 0 0 0 0 0 0 0 0 0 0 0 0 0 0 0 0 0 0 0 0 0
0 0 0 0 0 0 0 0 0 0 0 0 0 0 0 0 0 0 0 0 0 0 0 0 0 0 0 0 0 0 0 0 0 0 0 0 0 0 0 0 0 0 0
0 0 0 0 0 0 0 0 0 0 0 0 0 0 0 0 0 0 0 0 0 0 0 0 0 0 0 0 0 0 0 0 0 0 0 0 0 0 0 0 0 0 0
0 0 0 0 0 0 0 0 0 0 0 0 0 0 0 0 0 0 0 0 0 0 0 0 0 0 0 0 0 0 0 0 0 0 0 0 0 0 0 0 0 0 0
Height
5678 5679 5679 5680 5682 5683 5684 5687 5689 5692 5694 5697 5700 5703 5706 5709 5712 5715 5718 5721 5725 5728 5731 5734 5737 5739 5742 5744 5747 5749 5752 5754 5757 5759 5761 5763 5766 5768 5771 5773 5776 5778 5780
5666 5668 5668 5669 5671 5672 5673 5675 5678 5680 5683 5686 5689 5692 5695 5698 5701 5704 5707 5710 5714 5717 5720 5723 5726 5728 5731 5734 5737 5739 5742 5744 5747 5749 5751 5753 5756 5758 5761 5764 5766 5769 5771
5655 5656 5657 5658 5659 5660 5662 5664 5666 5669 5671 5674 5677 5680 5683 5686 5690 5693 5696 5699 5702 5706 5709 5712 5715 5717 5720 5723 5726 5728 5731 5733 5736 5738 5741 5743 5746 5749 5751 5754 5756 5759 5761
5642 5643 5644 5646 5647 5648 5650 5651 5654 5657 5659 5662 5665 5669 5672 5675 5677 5681 5684 5688 5690 5693 5697 5700 5703 5706 5708 5711 5714 5716 5719 5722 5724 5726 5729 5732 5735 5738 5740 5743 5746 5748 5751
5630 5630 5631 5633 5635 5636 5638 5639 5641 5644 5647 5650 5653 5656 5659 5662 5665 5668 5672 5675 5678 5681 5684 5687 5691 5693 5696 5698 5701 5703 5707 5710 5712 5714 5717 5720 5723 5725 5729 5732 5735 5737 5740
5618 5618 5619 5620 5622 5623 5625 5627 5629 5631 5634 5637 5640 5643 5646 5649 5652 5655 5658 5662 5665 5668 5671 5674 5677 5680 5682 5685 5688 5690 5693 5696 5699 5702 5704 5707 5711 5714 5717 5720 5723 5726 5729
5606 5606 5607 5608 5609 5611 5613 5614 5617 5619 5621 5624 5628 5630 5633 5636 5639 5642 5645 5648 5652 5655 5657 5660 5663 5666 5669 5671 5674 5676 5679 5682 5685 5688 5692 5695 5698 5701 5705 5708 5711 5714 5717
5595 5595 5595 5596 5597 5599 5600 5602 5604 5606 5609 5611 5614 5617 5620 5622 5625 5628 5631 5634 5638 5641 5644 5646 5649 5651 5654 5657 5659 5662 5665 5668 5672 5675 5678 5682 5685 5689 5692 5695 5699 5701 5705
5584 5584 5584 5585 5586 5587 5588 5590 5592 5594 5596 5598 5601 5603 5606 5608 5611 5614 5617 5620 5623 5626 5629 5632 5634 5637 5639 5642 5645 5647 5650 5654 5658 5661 5665 5668 5672 5676 5679 5682 5686 5689 5692
5573 5572 5573 5573 5574 5575 5576 5577 5579 5581 5583 5585 5587 5589 5592 5594 5596 5599 5602 5605 5608 5611 5614 5617 5619 5622 5625 5627 5630 5633 5636 5639 5643 5647 5651 5655 5659 5662 5666 5669 5672 5675 5679
5561 5561 5561 5561 5562 5562 5564 5565 5566 5568 5570 5571 5573 5575 5577 5580 5582 5585 5588 5591 5594 5596 5599 5602 5605 5607 5610 5612 5615 5619 5622 5625 5629 5633 5637 5641 5645 5649 5652 5655 5659 5662 5665
5550 5549 5549 5549 5550 5550 5551 5552 5553 5555 5556 5558 5560 5562 5563 5565 5568 5570 5573 5576 5579 5582 5585 5588 5591 5593 5595 5598 5601 5604 5608 5611 5615 5619 5623 5627 5631 5634 5638 5641 5645 5648 5651
5538 5538 5538 5538 5538 5538 5539 5540 5541 5542 5543 5544 5546 5548 5550 5552 5554 5556 5559 5561 5564 5567 5569 5572 5576 5578 5581 5584 5587 5590 5593 5597 5601 5605 5609 5613 5616 5620 5623 5627 5631 5634 5637
5526 5526 5526 5526 5526 5526 5526 5527 5528 5529 5530 5531 5532 5534 5536 5538 5540 5542 5544 5546 5549 5551 5554 5557 5560 5563 5566 5569 5572 5576 5579 5583 5587 5590 5594 5598 5601 5605 5609 5613 5616 5620 5622
5515 5514 5514 5513 5513 5513 5514 5514 5515 5516 5517 5518 5519 5520 5522 5523 5525 5527 5529 5531 5533 5536 5539 5542 5545 5548 5551 5554 5558 5561 5564 5568 5572 5576 5580 5583 5587 5590 5594 5598 5602 5605 5608
5504 5503 5502 5501 5501 5501 5501 5501 5502 5502 5503 5504 5505 5507 5508 5509 5510 5512 5514 5516 5519 5521 5524 5526 5529 5532 5536 5539 5542 5546 5549 5553 5557 5561 5564 5568 5572 5576 5579 5583 5586 5589 5592
5493 5491 5490 5489 5489 5488 5488 5489 5489 5489 5490 5491 5492 5493 5494 5495 5496 5497 5499 5501 5504 5506 5508 5510 5513 5517 5520 5523 5527 5530 5533 5537 5541 5545 5549 5553 5557 5560 5564 5567 5570 5573 5576
5481 5480 5478 5477 5476 5476 5476 5476 5476 5477 5477 5478 5479 5479 5480 5481 5482 5483 5485 5487 5488 5491 5493 5495 5497 5500 5504 5507 5511 5514 5517 5522 5526 5530 5533 5537 5541 5545 5548 5551 5554 5557 5561
5470 5468 5467 5465 5464 5464 5463 5463 5463 5463 5464 5465 5465 5466 5466 5467 5468 5470 5471 5472 5474 5476 5478 5480 5482 5485 5489 5492 5495 5498 5502 5506 5511 5514 5518 5522 5526 5530 5533 5536 5540 5542 5545
5459 5457 5455 5454 5453 5452 5452 5451 5451 5451 5451 5451 5452 5453 5453 5454 5454 5456 5457 5458 5460 5461 5463 5465 5468 5471 5474 5477 5480 5483 5487 5492 5496 5499 5503 5507 5511 5514 5516 5519 5523 5526 5530
5449 5447 5445 5443 5442 5441 5440 5440 5439 5439 5439 5439 5439 5439 5440 5440 5441 5442 5443 5444 5446 5448 5450 5452 5455 5457 5460 5463 5466 5469 5472 5476 5480 5484 5488 5491 5494 5498 5500 5503 5506 5510 5513
5439 5437 5435 5433 5432 5430 5429 5429 5428 5427 5426 5426 5426 5427 5427 5427 5427 5428 5428 5429 5431 5433 5436 5438 5441 5444 5446 5449 5452 5455 5458 5461 5465 5470 5473 5477 5479 5482 5484 5487 5490 5493 5496
5429 5427 5425 5423 5422 5420 5419 5418 5417 5416 5415 5414 5414 5414 5414 5414 5414 5414 5415 5416 5417 5420 5422 5425 5428 5430 5433 5436 5438 5441 5444 5447 5451 5455 5458 5461 5463 5466 5469 5472 5474 5477 5480
5419 5417 5415 5413 5411 5410 5408 5407 5406 5405 5404 5403 5402 5402 5402 5401 5401 5401 5402 5402 5404 5406 5408 5411 5414 5417 5420 5422 5425 5427 5430 5433 5436 5439 5442 5445 5447 5450 5454 5456 5459 5461 5464
5409 5407 5405 5403 5401 5399 5398 5396 5395 5394 5393 5392 5391 5390 5390 5389 5389 5389 5389 5390 5391 5393 5395 5398 5400 5403 5406 5409 5411 5413 5417 5419 5422 5425 5427 5430 5433 5435 5439 5442 5445 5447 5449
5399 5396 5394 5393 5391 5389 5387 5386 5384 5383 5382 5380 5379 5378 5378 5377 5377 5377 5377 5377 5379 5380 5382 5384 5386 5389 5392 5395 5397 5400 5403 5405 5407 5410 5413 5417 5419 5422 5425 5428 5430 5433 5435
Wind_Speed
41 42 42 41 41 41 43 44 44 44 44 44 44 44 45 46 47 47 47 46 45 45 44 44 44 43 42 41 41 42 42 42 41 42 42 41 41 41 40 39 39 39 38
42 42 43 42 42 42 43 44 44 44 45 45 45 46 46 47 47 48 49 49 48 47 46 46 46 46 44 43 43 43 44 44 44 44 44 43 43 43 42 42 41 40 40
43 43 43 43 43 43 44 45 46 45 46 47 47 47 47 47 48 49 49 50 50 49 48 49 48 48 48 47 47 46 45 45 46 46 46 46 45 44 43 43 43 43 42
43 44 44 45 45 44 45 46 46 46 46 48 49 49 49 49 50 50 50 50 51 51 50 51 51 51 50 49 49 49 48 47 48 48 48 48 47 46 46 45 45 45 45
42 43 44 45 46 46 45 46 47 47 47 48 49 49 50 51 51 52 53 53 52 52 52 53 53 53 54 52 51 50 49 49 49 50 49 49 48 48 48 47 46 46 46
41 42 43 44 45 46 46 46 47 47 47 47 48 49 51 53 53 54 54 53 54 54 53 53 55 55 54 54 54 53 52 52 51 50 50 51 50 49 49 49 48 48 48
39 40 41 42 44 44 45 45 46 47 47 48 48 49 49 52 53 54 54 55 54 55 55 55 55 56 56 55 55 55 54 54 52 51 50 51 51 51 51 50 49 48 48
38 39 40 41 42 43 44 45 46 47 48 48 49 49 50 51 52 53 54 55 55 55 56 56 56 56 57 56 55 55 54 54 54 52 52 52 51 51 52 51 50 49 49
37 38 40 40 41 42 43 44 45 47 48 49 49 50 51 51 52 54 54 53 54 55 55 55 56 57 57 58 56 55 54 55 56 55 54 53 52 52 51 51 51 51 50
37 38 39 41 41 41 42 43 45 46 48 49 49 50 50 52 52 53 54 53 54 55 56 56 56 56 57 58 57 57 57 56 56 56 56 54 53 53 52 51 51 51 52
38 39 39 39 40 41 42 43 44 45 46 48 49 49 50 51 52 53 54 54 55 55 56 56 56 56 56 57 57 57 57 57 56 56 56 55 55 55 54 52 51 51 51
39 39 39 39 40 41 42 43 44 45 46 47 48 49 50 51 52 53 54 55 55 54 55 56 56 56 56 56 56 57 57 57 57 56 57 57 56 56 55 54 53 52 52
39 39 39 39 40 41 43 44 44 45 45 46 47 48 49 51 52 53 54 55 55 54 55 56 57 56 56 56 56 57 57 57 56 56 56 56 56 56 55 55 55 54 54
38 39 40 41 41 42 42 43 44 45 45 46 46 47 48 50 51 52 53 54 55 55 55 56 56 56 56 56 56 57 58 58 57 56 56 56 56 56 55 55 56 56 55
37 38 40 40 40 40 41 42 43 44 45 46 46 47 48 49 50 51 53 54 55 55 56 56 56 55 56 56 57 56 57 57 57 56 56 56 56 57 56 56 56 57 56
38 39 39 39 39 40 40 41 42 44 45 45 46 46 47 48 49 50 52 54 54 54 55 56 56 56 56 57 57 57 56 57 57 57 57 56 57 56 57 57 56 57 56
39 39 38 39 39 39 40 40 41 42 43 44 45 46 46 46 46 48 50 52 53 54 54 55 56 56 56 56 57 57 57 57 57 57 58 57 57 56 56 56 56 57 57
37 37 37 37 38 38 39 40 40 41 43 44 44 45 45 46 46 46 47 49 51 52 53 54 55 56 56 56 56 57 58 57 57 57 57 58 57 56 56 56 56 57 57
36 36 36 36 37 38 39 39 39 40 41 42 43 44 45 46 47 47 47 48 49 50 51 52 53 54 55 55 55 55 56 56 57 57 57 57 56 56 56 56 57 57 57
34 35 35 35 36 37 38 38 39 40 40 41 43 44 45 46 46 47 47 47 48 48 48 48 50 50 52 53 54 54 55 55 56 57 57 57 57 57 57 57 57 57 57
33 33 33 34 34 35 36 37 38 39 39 40 42 43 45 45 46 46 47 47 47 47 47 47 47 48 50 51 53 54 54 55 56 57 57 56 56 57 57 57 57 57 58
33 33 33 32 32 33 33 34 35 36 38 39 40 41 42 43 44 45 46 46 47 47 48 47 46 47 48 49 51 52 53 54 54 55 55 55 55 56 56 56 57 58 59
32 32 32 32 32 33 33 34 34 35 35 37 38 39 39 40 41 42 43 44 45 46 47 47 47 47 47 48 49 51 52 53 53 52 52 53 54 54 54 55 56 57 57
31 32 32 32 32 33 34 34 34 35 35 35 36 37 37 38 40 41 42 43 43 44 45 47 47 47 47 48 48 50 51 52 52 52 52 52 53 53 53 53 54 54 55
32 32 32 32 32 33 34 34 34 35 35 35 35 36 37 37 38 38 39 40 41 42 43 45 45 45 46 47 48 48 50 50 50 51 50 51 52 53 53 53 53 53 53
30 30 30 31 31 31 31 31 32 33 34 34 35 35 36 37 37 37 38 38 39 40 41 42 43 44 44 45 46 48 48 49 48 48 49 49 50 51 51 52 52 52 52
Wind_Direction
258 257 257 256 255 254 252 250 249 249 249 247 245 245 245 245 245 245 245 245 244 245 246 246 246 245 246 248 249 248 248 248 248 248 248 247 247 246 246 247 247 248 248
258 256 256 256 255 254 253 251 250 249 248 247 246 245 246 245 246 245 245 245 246 247 246 246 247 247 247 247 248 248 249 249 249 249 249 249 249 248 248 247 247 248 249
258 256 255 255 255 255 254 252 251 249 248 247 246 247 247 247 246 245 245 245 246 247 246 246 247 248 248 247 248 249 249 249 250 249 249 250 249 248 247 248 248 249 249
258 257 256 255 254 254 254 252 251 250 248 248 247 247 248 248 247 246 245 245 246 247 248 247 247 248 249 249 250 250 251 251 251 250 250 249 249 248 248 248 248 249 250
259 258 257 256 254 254 253 252 251 249 249 248 248 248 247 247 247 247 246 246 247 248 248 247 247 248 249 250 251 251 251 251 250 250 249 249 249 249 249 248 248 250 250
261 260 258 256 255 253 253 252 251 249 248 248 248 248 248 248 247 247 246 247 247 248 248 248 248 249 250 250 251 252 251 251 251 250 249 250 249 249 248 248 249 250 250
263 261 259 257 255 253 253 252 251 250 248 248 248 249 249 249 249 248 248 248 248 249 250 248 248 248 250 250 250 251 251 251 251 251 250 250 249 250 249 248 249 249 250
264 261 260 258 256 254 253 252 251 250 248 248 248 248 249 250 250 249 248 249 249 249 250 250 249 250 249 250 251 250 250 250 251 251 250 250 250 250 249 249 249 250 251
266 264 262 261 259 256 254 253 252 251 250 249 249 249 250 251 251 249 249 249 250 250 250 251 250 250 250 250 251 251 249 248 249 250 249 249 250 250 248 248 250 251 251
270 267 265 263 260 259 256 254 253 253 252 251 251 251 251 252 251 250 250 250 251 251 250 251 251 251 251 251 250 250 249 249 249 249 249 249 249 249 248 248 250 251 251
271 269 266 264 261 259 257 256 255 254 253 253 252 252 253 253 251 251 250 250 251 252 251 251 251 252 252 251 250 250 250 250 249 249 248 248 249 248 248 249 251 251 252
273 271 267 264 262 260 258 257 256 255 255 255 254 253 253 253 252 252 251 251 252 253 253 251 251 252 252 252 251 250 250 251 250 249 249 249 250 249 249 250 251 251 252
274 271 269 267 264 261 259 258 257 257 256 255 255 254 254 253 253 253 252 252 252 252 253 252 252 252 252 252 251 251 250 250 250 250 250 250 251 250 250 251 251 251 252
275 272 270 269 268 265 262 259 258 258 258 257 256 255 255 255 254 253 253 252 252 252 253 252 252 252 252 252 251 251 251 250 250 250 251 251 251 250 251 251 252 252 252
276 274 271 270 268 267 265 262 259 258 258 258 257 256 256 257 256 254 253 251 251 252 252 252 252 252 252 252 251 250 251 250 249 250 251 251 251 251 251 252 253 253 253
278 276 273 270 268 267 266 264 261 259 258 258 258 258 258 258 257 256 253 251 251 252 253 253 252 252 251 251 251 250 250 249 249 250 250 250 251 252 253 253 253 253 253
279 277 275 271 268 265 264 264 263 261 260 260 260 259 259 259 258 257 255 253 252 252 253 253 253 252 251 250 250 249 249 249 250 249 249 249 250 252 253 254 254 253 254
280 279 277 273 270 266 265 264 263 262 261 261 261 261 260 260 259 257 255 254 253 253 254 254 253 251 250 250 250 249 248 248 248 249 249 249 249 251 253 254 254 253 254
281 279 278 275 272 269 267 265 264 264 263 262 261 261 261 261 260 259 257 256 255 255 255 255 253 251 250 250 249 248 247 247 247 248 248 249 249 251 252 253 253 253 254
282 281 279 277 274 271 269 267 267 266 265 263 262 262 262 262 261 260 259 258 256 255 254 254 253 251 249 248 248 248 247 247 247 248 248 249 250 251 252 252 252 252 253
283 281 280 278 275 273 271 269 269 268 267 266 265 264 263 262 261 261 260 259 257 255 253 253 252 251 249 248 248 248 248 248 249 248 248 249 250 251 252 252 252 252 253
283 282 280 278 275 274 274 273 271 270 268 267 266 265 264 262 261 261 261 259 258 256 253 252 251 251 249 249 248 249 249 248 248 248 249 250 251 251 251 251 252 253 253
283 282 280 278 277 276 275 274 273 271 270 268 267 266 265 263 262 262 261 259 258 257 254 252 251 251 250 249 249 249 248 247 247 249 250 250 250 250 251 252 252 252 253
284 283 282 280 279 278 277 275 274 273 272 271 269 268 266 265 265 265 263 260 258 257 256 253 251 250 250 249 249 249 248 247 248 249 250 250 249 250 250 251 252 252 253
285 284 283 281 280 279 278 276 274 273 272 271 271 269 268 268 267 266 264 261 258 257 257 254 251 249 249 249 249 249 248 248 249 250 250 250 250 250 250 251 252 253 254
285 284 283 282 281 280 279 277 275 275 274 273 272 271 269 268 267 266 263 261 260 259 258 255 251 250 250 250 250 250 248 249 250 251 252 252 251 251 251 252 253 254 255